DateTimeUTC,F1_A11,F1_S11,BsB_S11,BsG_S11,BsR_S11,BbsB_S11,BbsG_S11,BbsR_S11,BaB_A11,BaG_A11,BaR_A11,Tu_S11,T_S11,Uu_S11,U_S11,P_S11,T1_A11
2021-06-05T00:00:00Z,00000200,20000000,,,,,,,0000.00,-000.23,-000.28,16.9,23.9,03.4,02.2,0675.2,30.9
2021-06-05T00:01:00Z,00000200,20000000,,,,,,,-000.04,0000.02,0000.14,16.9,23.9,03.4,02.2,0675.2,30.9
2021-06-05T00:02:00Z,00000200,20000000,,,,,,,-000.27,-000.34,-000.29,16.9,23.9,03.4,02.2,0675.2,30.9
2021-06-05T00:03:00Z,00000200,60000000,,,,,,,0000.57,0000.58,0000.28,16.9,23.9,03.4,02.2,0675.2,30.9
2021-06-05T00:04:00Z,00000200,40000000,0002.06,0000.63,0000.73,0000.50,0000.02,-000.04,0000.58,0000.61,0000.44,17.0,23.7,03.4,02.3,0676.2,30.9
2021-06-05T00:05:00Z,00000200,00000000,0001.80,0001.04,0000.67,0000.47,0000.13,0000.24,0000.61,0000.00,0000.53,17.0,23.7,03.5,02.3,0676.3,30.9
2021-06-05T00:06:00Z,00000200,00000000,0002.29,0001.07,0000.50,0000.52,0000.17,0000.13,0000.28,0000.70,0000.10,17.0,23.6,03.5,02.4,0676.3,30.9
2021-06-05T00:07:00Z,00000200,00000000,0002.08,0000.87,0000.42,-000.08,0000.11,0000.33,0000.13,0000.34,0000.09,17.0,23.6,03.6,02.4,0676.3,30.9
2021-06-05T00:08:00Z,00000200,00000000,0001.59,0000.78,0000.64,0000.62,0000.03,-000.13,0000.80,0000.39,0000.62,17.0,23.6,03.6,02.4,0676.3,30.9
2021-06-05T00:09:00Z,00000200,00000000,0002.35,0000.75,0000.50,0000.46,-000.08,0000.12,0000.41,0000.54,0000.12,17.0,23.6,03.7,02.5,0676.3,30.9
2021-06-05T00:10:00Z,00000200,00000000,0002.51,0000.79,0000.47,0000.14,0000.10,0000.05,0000.40,0000.09,0000.33,17.0,23.6,03.7,02.4,0676.3,30.9
2021-06-05T00:11:00Z,00000200,00000000,0001.38,0000.91,0000.47,0000.50,0000.17,0000.09,0000.86,0000.93,0000.57,17.0,23.6,03.8,02.5,0676.3,30.9
2021-06-05T00:12:00Z,00000200,00000000,0001.43,0000.94,0000.71,0000.55,0000.09,-000.00,0000.44,0000.46,0000.44,17.0,23.6,03.9,02.6,0676.3,30.9
2021-06-05T00:13:00Z,00000200,00000000,0002.50,0000.89,0000.44,0000.63,0000.27,-000.13,0000.36,0000.56,0000.35,17.0,23.6,03.8,02.6,0676.3,30.9
2021-06-05T00:14:00Z,00000200,00000000,0001.44,0000.82,0000.49,0000.20,0000.07,0000.25,0000.33,0000.43,0000.08,17.0,23.6,03.9,02.6,0676.3,30.9
2021-06-05T00:15:00Z,00000200,00000000,0001.84,0001.18,0000.47,0000.26,0000.08,-000.23,0000.51,0000.14,0000.64,17.0,23.6,04.0,02.6,0676.3,30.9
2021-06-05T00:16:00Z,00000200,00000000,0001.89,0001.02,0000.76,0000.34,0000.04,0000.13,0000.40,0000.56,0000.21,17.0,23.6,04.1,02.7,0676.3,30.9
2021-06-05T00:17:00Z,00000200,00000000,0002.10,0000.84,0000.59,-000.10,0000.28,0000.18,0000.24,0000.10,0000.07,17.0,23.5,04.0,02.7,0676.3,30.9
2021-06-05T00:18:00Z,00000200,00000000,0001.40,0001.18,0000.60,0000.06,0000.18,0000.32,0000.39,0000.58,0000.61,17.0,23.5,04.1,02.8,0676.2,30.8
2021-06-05T00:19:00Z,00000200,00000000,0002.23,0001.11,0000.43,0000.41,0000.16,0000.09,0000.71,0000.38,0000.04,17.0,23.5,04.1,02.7,0676.3,30.9
2021-06-05T00:20:00Z,00000200,00000000,0001.83,0000.90,0000.57,0000.23,0000.03,0000.20,0000.39,0000.21,0000.27,17.0,23.5,04.1,02.7,0676.3,30.9
2021-06-05T00:21:00Z,00000200,00000000,0001.43,0000.88,0000.49,0000.78,0000.07,0000.37,0000.70,0000.68,0000.46,17.0,23.5,04.1,02.8,0676.3,30.9
2021-06-05T00:22:00Z,00000200,00000000,0001.09,0001.02,0000.75,0000.25,-000.04,0000.08,0000.59,0000.25,0000.22,16.9,23.5,04.2,02.8,0676.4,30.9
2021-06-05T00:23:00Z,00000200,00000000,0001.98,0001.03,0000.66,0000.38,0000.16,0000.35,0000.16,0000.63,0000.42,16.9,23.5,04.2,02.8,0676.3,30.9
2021-06-05T00:24:00Z,00000200,00000000,0001.79,0001.18,0000.47,0000.56,-000.05,0000.01,0000.56,0000.33,0000.30,16.9,23.5,04.3,02.9,0676.3,30.9
2021-06-05T00:25:00Z,00000200,00000000,0001.97,0001.10,0000.69,0000.31,0000.20,0000.30,0000.28,0000.35,0000.46,16.9,23.5,04.2,02.8,0676.4,30.9
2021-06-05T00:26:00Z,00000200,00000000,0001.47,0001.03,0000.58,0000.36,-000.14,-000.27,0000.59,0000.28,0000.11,16.9,23.4,04.3,02.9,0676.3,30.9
2021-06-05T00:27:00Z,00000200,00000000,0001.41,0000.83,0000.43,0000.79,0000.10,0000.37,0000.27,0000.19,0000.52,16.9,23.4,04.3,02.9,0676.3,30.8
2021-06-05T00:28:00Z,00000200,00000000,0002.23,0000.83,0000.63,0000.10,0000.44,0000.16,0000.64,0000.69,0000.02,16.9,23.4,04.4,02.9,0676.3,30.9
2021-06-05T00:29:00Z,00000200,00000000,0002.15,0000.93,0000.60,0000.70,0000.13,0000.10,0000.27,0000.28,0000.41,16.9,23.4,04.4,03.0,0676.3,30.9
2021-06-05T00:30:00Z,00000200,00000000,0002.14,0000.99,0000.58,0000.14,0000.02,0000.12,0000.54,0000.77,0000.11,16.9,23.4,04.4,03.0,0676.3,30.8
2021-06-05T00:31:00Z,00000200,00000000,0001.69,0000.99,0000.54,0000.12,0000.29,0000.24,0000.69,0000.14,0000.67,16.9,23.4,04.4,02.9,0676.3,30.9
2021-06-05T00:32:00Z,00000200,00000000,0001.98,0000.87,0000.65,0000.31,0000.08,0000.24,0000.22,0000.55,0000.65,16.9,23.4,04.6,03.0,0676.3,30.9
2021-06-05T00:33:00Z,00000200,00000000,0002.40,0001.05,0000.68,0000.63,0000.24,0000.03,0000.66,0000.58,-000.16,16.9,23.4,04.6,03.1,0676.3,30.9
2021-06-05T00:34:00Z,00000200,00000000,0001.75,0001.02,0000.47,0000.13,0000.43,0000.12,0000.14,0000.32,0000.27,16.9,23.4,04.5,03.0,0676.3,30.8
2021-06-05T00:35:00Z,00000200,00000000,0001.58,0001.03,0000.55,0000.53,0000.42,0000.42,0001.08,0000.54,0000.68,16.8,23.3,04.7,03.1,0676.3,30.8
2021-06-05T00:36:00Z,00000200,00000000,0002.17,0000.76,0000.53,0000.57,0000.03,0000.27,0000.48,0000.74,0000.49,16.8,23.3,04.7,03.2,0676.3,30.9
2021-06-05T00:37:00Z,00000200,00000000,0001.99,0000.86,0000.52,0000.39,0000.25,-000.00,0000.58,0000.75,0000.83,16.9,23.4,04.8,03.2,0676.3,30.9
2021-06-05T00:38:00Z,00000200,00000000,0001.90,0000.95,0000.64,0000.74,0000.06,0000.13,0000.23,0000.22,-000.08,17.0,23.4,04.8,03.2,0676.3,30.9
2021-06-05T00:39:00Z,00000200,00000000,0001.34,0000.87,0000.57,0000.39,0000.09,-000.02,0000.74,0000.43,0000.43,17.0,23.4,04.8,03.2,0676.2,30.9
2021-06-05T00:40:00Z,00000200,00000000,0001.56,0000.86,0000.39,0000.48,0000.17,-000.16,0000.43,0000.56,0000.25,17.1,23.5,04.8,03.3,0676.3,30.9
2021-06-05T00:41:00Z,00000200,00000000,0002.18,0001.19,0000.62,0000.64,-000.06,0000.15,-000.11,-000.00,-000.09,17.1,23.5,04.8,03.2,0676.2,30.9
2021-06-05T00:42:00Z,00000200,00000000,0001.69,0001.07,0000.43,0000.23,0000.04,0000.30,0000.46,0000.30,0000.13,17.1,23.5,04.8,03.2,0676.2,30.9
2021-06-05T00:43:00Z,00000200,00000000,0002.19,0000.97,0000.42,0000.42,0000.24,0000.23,0000.39,0000.50,0000.72,17.1,23.5,04.9,03.3,0676.2,30.9
2021-06-05T00:44:00Z,00000200,00000000,0001.98,0001.08,0000.60,0000.83,0000.02,-000.02,0000.58,0000.34,0000.37,17.1,23.5,04.9,03.3,0676.3,30.9
2021-06-05T00:45:00Z,00000200,00000000,0002.38,0000.95,0000.69,-000.05,0000.28,0000.39,0000.59,0000.10,0000.25,17.1,23.5,05.0,03.3,0676.3,30.9
2021-06-05T00:46:00Z,00000200,00000000,0002.31,0000.98,0000.81,0000.60,0000.31,0000.15,0000.37,0000.82,-000.08,17.1,23.4,04.9,03.3,0676.2,30.9
2021-06-05T00:47:00Z,00000200,00000000,0001.76,0000.80,0000.78,-000.08,0000.27,0000.29,0000.45,0000.18,0000.64,17.0,23.4,05.0,03.4,0676.2,30.9
2021-06-05T00:48:00Z,00000200,00000000,0001.71,0001.08,0000.65,0000.11,0000.42,-000.03,0000.33,0000.42,0000.30,17.0,23.4,05.0,03.3,0676.3,30.9
2021-06-05T00:49:00Z,00000200,00000000,0001.68,0000.73,0000.44,0000.27,0000.22,0000.26,0000.65,0000.38,0000.63,17.0,23.4,05.0,03.4,0676.3,30.9
2021-06-05T00:50:00Z,00000200,00000000,0001.76,0001.10,0000.61,0000.65,0000.16,0000.56,0000.25,0000.70,-000.13,17.0,23.4,05.1,03.4,0676.2,30.9
2021-06-05T00:51:00Z,00000200,00000000,0001.35,0001.12,0000.80,0000.26,0000.18,0000.17,0000.44,0000.51,0000.35,17.0,23.4,05.0,03.4,0676.3,30.9
2021-06-05T00:52:00Z,00000200,00000000,0001.62,0000.65,0000.47,0001.09,0000.08,0000.11,0000.48,0000.17,0000.28,17.0,23.4,05.1,03.4,0676.3,30.9
2021-06-05T00:53:00Z,00000200,00000000,0001.67,0001.10,0000.61,0000.69,0000.28,0000.05,0000.53,0000.16,0000.19,17.0,23.4,05.1,03.4,0676.3,30.9
2021-06-05T00:54:00Z,00000200,00000000,0001.65,0000.90,0000.61,0000.54,0000.13,0000.13,0000.43,0000.82,0000.53,17.0,23.4,05.1,03.4,0676.3,30.9
2021-06-05T00:55:00Z,00000200,00000000,0002.70,0000.92,0000.87,0000.39,0000.36,0000.23,0000.46,-000.04,0000.16,17.0,23.4,05.1,03.4,0676.3,30.9
2021-06-05T00:56:00Z,00000200,00000000,0001.52,0001.17,0000.88,0000.90,0000.11,0000.09,0000.66,0000.80,0000.58,17.0,23.4,05.2,03.5,0676.3,30.9
2021-06-05T00:57:00Z,00000200,40000000,,,,,,,-000.53,-000.19,-000.34,17.0,23.5,05.5,03.7,0676.2,30.9
2021-06-05T00:58:00Z,00000200,60000000,,,,,,,0000.17,-000.12,0000.02,16.8,23.6,04.8,03.2,0675.3,30.9
2021-06-05T00:59:00Z,00000200,20000000,,,,,,,0000.07,0000.16,0000.29,16.7,23.7,04.9,03.2,0675.3,30.9
